Observations for Trim Market St
| Time | AQI | Temp °C | Hum % | Pres Pa | CO μg/m³ | H₂S μg/m³ | NO μg/m³ | NO₂ μg/m³ | O₃ μg/m³ | SO₂ μg/m³ | PM1 μg/m³ | PM2.5 μg/m³ | PM10 μg/m³ |
|---|---|---|---|---|---|---|---|---|---|---|---|---|---|
| Wednesday 26 August 2026 | |||||||||||||
| 13:57 | 2 | 23.9 | 69 | 50,461 | 0.33 | 0 | 3.57 | 14.5 | 31.46 | 0 | 7.84 | 10.43 | 14.5 |
| 13:56 | 2 | 23.8 | 69 | 49,974 | 0.67 | 0 | 3.56 | 34.61 | 40.64 | 0 | 7.84 | 11.4 | 15.76 |
| 13:55 | 2 | 23.7 | 69 | 49,673 | 0.33 | 0 | 3.59 | 20.68 | 39.23 | 0 | 7.84 | 11.39 | 15.76 |
| 13:54 | 2 | 23.5 | 69 | 49,733 | 0.29 | 0 | 3.15 | 13.26 | 35.07 | 0 | 8.55 | 11.86 | 16.37 |
| 13:53 | 2 | 23.5 | 69 | 49,204 | 0.2 | 0 | 2.46 | 12.82 | 35.71 | 0 | 9.98 | 12.33 | 18.25 |
| 13:52 | 2 | 23.4 | 70 | 48,458 | 0.23 | 0 | 1.95 | 14.13 | 33.62 | 0 | 8.55 | 11.84 | 16.98 |
| 13:51 | 2 | 23.3 | 70 | 47,918 | 0.26 | 0 | 2.07 | 13.4 | 34.8 | 0 | 6.41 | 8.42 | 13.82 |
| 13:50 | 2 | 23.2 | 70 | 47,456 | 0.34 | 0 | 2.08 | 13.67 | 32.59 | 0 | 9.26 | 11.33 | 15.69 |
| 13:49 | 2 | 23.2 | 70 | 46,828 | 0.27 | 0 | 1.96 | 13.73 | 38.23 | 0 | 8.55 | 10.36 | 15.69 |
| 13:48 | 2 | 23.1 | 70 | 46,435 | 0.29 | 0 | 1.95 | 13.9 | 30.8 | 0 | 9.26 | 10.83 | 15.05 |
| 13:47 | 2 | 23.1 | 70 | 46,137 | 0.44 | 0 | 2.46 | 15.25 | 34.55 | 0 | 8.55 | 11.31 | 16.3 |
| 13:46 | 2 | 23 | 70 | 45,208 | 0.27 | 0 | 2.33 | 14.1 | 36.52 | 0 | 9.98 | 11.3 | 15.66 |
| 13:44 | 2 | 22.8 | 71 | 44,104 | 0.22 | 0 | 1.67 | 13.18 | 33.05 | 0 | 7.84 | 10.79 | 15.01 |
| 13:43 | 2 | 22.8 | 71 | 43,135 | 0.23 | 0 | 1.66 | 13.28 | 33.93 | 0 | 9.26 | 10.78 | 15 |
| 13:41 | 2 | 22.7 | 71 | 42,008 | 0.22 | 0 | 1.2 | 12.68 | 35.49 | 0 | 7.84 | 8.82 | 14.98 |
| 13:37 | 2 | 22.4 | 72 | 37,464 | 0.24 | 0 | 1.56 | 12.43 | 34.79 | 0 | 7.84 | 8.76 | 12.45 |
| 13:34 | 2 | 22.2 | 72 | 32,390 | 0.26 | 0 | 1.13 | 12.35 | 37.06 | 0 | 7.84 | 10.17 | 14.26 |
| 13:28 | 2 | 21.9 | 74 | 24,904 | 0.24 | 0 | 2.01 | 13.78 | 38.84 | 0 | 8.55 | 9.62 | 14.8 |
| 13:27 | 2 | 21.8 | 74 | 23,754 | 0.26 | 0 | 2.43 | 13.25 | 39.81 | 0 | 7.13 | 8.66 | 13.58 |
| 13:26 | 2 | 21.8 | 74 | 22,793 | 0.34 | 0 | 2.86 | 14.22 | 40.18 | 0 | 7.13 | 11.53 | 16 |